Flag for Greenland Weather past 2 weeks in Thule Air Base, Greenland

Now
36 °F

Sunny.


Feels Like: 31 °F
Forecast: 28 / 36 °F
Wind: 6 mph from Southwest

Location: Thule A. B.

Current Time: Sep 1, 2014 at 11:01:14 PM

Latest Report: Sep 1, 2014 at 9:58 PM


Visibility: N/A

Pressure: 29.44 "Hg

Humidity: 81%

Dew point: 30 °F

Location of Thule Air BaseLocation

Historic Weather in Thule Air Base — Graph

°F

Thule Air Base temperature yesterday

Maximum temperature yesterday: 43 °F (at 1:58 PM)
Minimum temperature yesterday: 30 °F (at 2:58 AM)
Average temperature yesterday: 37 °F

Past Weeks' High & Low Weather Summary

 TemperatureHumidityPressure
High48 °F (Aug 19, 8:58 AM)100% (Aug 27, 2:00 AM)30.12 "Hg (Aug 27, 2:00 AM)
Low28 °F (Aug 30, 2:58 AM)42% (Aug 30, 5:58 PM)29.32 "Hg (Sep 1, 12:58 PM)
Average37 °F79%29.77 "Hg
* Reported Aug 17 9:58 PM — Sep 1 9:58 PM, Thule Air Base, Weather by CustomWeather, © 2014

Note: Actual official high and low records may vary slightly from our data, if they occured in-between our weather recording intervals... More about our weather records

Advertising

Thule Air Base weather history for previous 24 hours

 ConditionsComfort  
Time TempWeatherWind HumidityBarometerVisibility
9:58 PM
Sep 1
36 °FSunny.6 mph81%29.44 "HgN/A
8:58 PM41 °FSunny.No wind57%29.42 "HgN/A
7:58 PM41 °FSunny.5 mph53%29.40 "HgN/A
6:58 PM39 °FSunny.6 mph61%29.39 "HgN/A
5:58 PM39 °FSunny.5 mph56%29.37 "HgN/A
4:58 PM39 °FSunny.2 mph65%29.36 "HgN/A
3:58 PM41 °FSunny.No wind66%29.34 "HgN/A
2:58 PM41 °FSunny.2 mph61%29.32 "HgN/A
1:58 PM39 °FSunny.2 mph65%29.32 "HgN/A
12:58 PM37 °FSunny.2 mph75%29.32 "HgN/A
11:58 AM37 °FSunny.3 mph75%29.34 "HgN/A
10:58 AM37 °FSunny.No wind65%29.34 "HgN/A
9:58 AM37 °FSunny.No wind70%29.34 "HgN/A
8:58 AM36 °FSunny.3 mph65%29.35 "HgN/A
7:58 AM34 °FSunny.8 mph70%29.36 "HgN/A
6:58 AM32 °FSunny.10 mph75%29.36 "HgN/A
5:58 AM32 °FClear.8 mph69%29.38 "HgN/A
4:58 AM30 °FClear.7 mph80%29.39 "HgN/A
3:58 AM31 °FClear.10 mph78%29.40 "HgN/A
2:58 AM30 °FClear.10 mph86%29.41 "HgN/A
1:58 AM32 °FClear.7 mph80%29.42 "HgN/A
12:58 AM32 °FClear.6 mph80%29.43 "HgN/A
11:58 PM
Aug 31
32 °FSunny.7 mph80%29.44 "HgN/A
Weather by CustomWeather, © 2014

See weather overviewHow to use our weather pages